Other Surface Observations
Issued by NWS

Home | Current Version | Previous Version | Text Only | Print | Product List | Glossary On
Versions: 1 2 3 4 5 6 7 8 9 10 11 12 13 14 15 16 17 18 19 20 21 22 23 24 25 26 27 28 29 30 31 32 33 34 35 36 37 38 39 40 41 42 43 44 45 46 47 48 49 50
000
SXUS52 KTAE 300816
OSOTAE
OSOTAE
North Florida/South Alabama/Southwest Georgia Weather Roundup
National Weather Service Tallahassee Florida
400 AM EDT FRI JUL 30 2021

Note: "fair" indicates few or no clouds below 12,000 feet with no
significant weather and/or obstructions to visibility.

!FLZ017-115-028-034-025-300900
...North Florida...

CITY           SKY/WX    TMP DP  RH WIND       PRES   REMARKS
TALL INTL ARPT CLEAR     78  76  93 NE3       29.97F
FSU LOVE BLDG    N/A     79  75  89 SE3         N/A
APALACHICOLA   CLOUDY    81  79  94 SW12      29.98R HX  90
PERRY          NOT AVBL
CROSS CITY     PTCLDY    77  77  99 E3        29.99F
JACKSONVILLE   CLEAR     74  74 100 CALM      29.97S
$$

!FLZ112-006-005-002-011-300900
...Florida Panhandle...

CITY           SKY/WX    TMP DP  RH WIND       PRES   REMARKS
MARIANNA       CLEAR     78  75  90 CALM      29.97S
BONIFAY        NOT AVBL
PANAMA CITY NW FAIR      76  76 100 W5        29.97S
TYNDALL AFB    CLOUDY    80  76  88 CALM      29.97R
TYND DRONE APT   N/A     82  79  91 CALM      29.95S HX  91
DE FUNIAK SPR  FAIR      77  73  87 CALM      30.00S
EGLIN AFB      PTCLDY    78  74  87 NW7       29.97F
DESTIN         MOCLDY    83  75  77 NW7       29.97F HX  90
HURLBURT       PTCLDY    78  74  87 NW5       29.97F
CRESTVIEW      PTCLDY    77  74  90 N3        30.01S
PENSACOLA      PTCLDY    81  78  91 NW6       29.99S
$$

!ALZ063-066-300900
...South Alabama...

CITY           SKY/WX    TMP DP  RH WIND       PRES   REMARKS
DOTHAN         CLEAR     78  75  90 W3        30.03R
OZARK CAIRNS   CLEAR     75  74  99 CALM      29.99R
FT RUCKER HELI CLEAR     74  73  96 CALM      29.99R
RUCKER HELI 3  FAIR      76  74  92 CALM      29.99R
RUCKER HELI 2  FAIR      75  75  99 NW3       29.98S
FLORALA APT    CLEAR     78  72  81 CALM      30.02R
ANDALUSIA      CLEAR     81  76  84 NW3       30.01R
TROY           CLEAR     77  72  84 CALM      30.02R HAZE
EUFALA         FAIR      75  73  93 CALM      30.00R FOG
MOBILE         CLEAR     77  75  93 W3        30.02R
$$

!GAZ120>161-300900
...Southwest and South Central Georgia...

CITY           SKY/WX    TMP DP  RH WIND       PRES   REMARKS
THOMASVILLE    FAIR      73  73 100 CALM      30.00F
BAINBRIDGE     CLEAR     76  75  96 CALM      29.98S
MOODY AFB      CLEAR     75  73  93 CALM      29.99R
VALDOSTA       CLEAR     75  74  96 S3        29.99S FOG
MOULTRIE       CLEAR     73  73 100 CALM      30.00S
BLAKELY        CLEAR     73  72  94 CALM      29.99S FOG
ALBANY         CLEAR     80  76  87 CALM      30.00R
TIFTON         FAIR      76  75  96 S3        29.99R
FITZGERALD     FAIR      76  74  95 CALM      30.00R
CORDELE        FAIR      76  73  91 CALM      30.00R
AMERICUS       FAIR      79  75  89 CALM      30.01R FOG
HOMERVILLE     FOG       76  75  97 CALM      30.00S VSB 1/2
$$

!GMZ750-755-770-775-300900
...Coastal and Buoy Obs...

STATION/POSITION TIME  TEMP    WIND        PRES    VSBY  WAVE
                       AIR SEA DIR/SP/G                  HT/PER
                 (UTC) (F)     (DEG/KT/KT) (MB)    (MI)  (FT/S)
KEATON BEACH     0800   78      80/  4/  4 1015.0F
CEDAR KEY        0800   82     160/  6/  7 1015.6F
C TOWER          0800   80     260/  9/ 10 1015.5S
APALACHICOLA BUO 0750   83 85  250/  8/ 10 1014.5F         2/ 4
PANAMA CITY BUOY 0750   84 85  280/ 12/ 16 1015.3F         2/ 3
MOBILE BUOY      0800   86     260/  4/  6 1016.4
ORANGE BCH AL BU 0750   87     320/  8/ 10   N/A           1/ 3
$$



USA.gov is the U.S. government's official web portal to all federal, state and local government web resources and services.